sat.trackr.live / text

‹ back to catalog

STARLINK-2645

NORAD 48444 · 2021-040S

PAYLOAD ACTIVE UNKNOWN

§ Identity

Operator
Country
US
Launch date
2021-05-09
Launch site
AFETR
Launch vehicle
Mass (kg)
RCS (m²)

Purposes: comms

External: N2YO · Heavens-Above · Gunter

§ Orbital elements

Epoch: 2026-09-15T08:44:41.019360Z

Period
94.01 min
Inclination
53.1599°
Eccentricity
0.0001240
Mean motion
15.31709245 rev/d
Perigee alt
469.9 km
Apogee alt
471.6 km
Semi-major
6,848.8 km
B*
6.8205e-5
RAAN
15.4729°
Arg perigee
89.2871°
Mean anomaly
270.8272°
Rev number
29,574

§ Raw data

STARLINK-26451 48444U 21040S   26258.36436365  .00001752  00000+0  68205-4 0  99992 48444  53.1599  15.4729 0001240  89.2871 270.8272 15.31709245295740

JSON: /api/v1/satellites/48444 · /tle

For live sub-satellite position, see the globe view (requires WebGL).

§ Visibility from observer

Set your observer location to see the next 7 days of passes ≥ 10°. The values pass through the URL so the page stays shareable.

No JS? Fill the form by hand. The geolocation button needs JavaScript.